When you browse on this site, cookies collect data to enhance your experience and personalize the content and advertising you see.
Visit our Privacy Policy to learn more. By continuing to use the site, you agree to this use of cookies and data.
  • en Suisse
  • Liste des pays
  • À 7 jours
  • Température de l'eau
  • Carte météo
  • Widgets météo
  • user-avatar
    Se connecter

    Météo par heure à Vanadzor

    Ce jour, 27 Mai, Mercredi

    Heure Température Précipitation Vent Pression Humidité
    00:00 +11°C° 0 mm 1 m/s 638 mmHg 88%
    01:00 +11°C° 0 mm 1 m/s 638 mmHg 90%
    02:00 +10°C° 0 mm 1 m/s 638 mmHg 91%
    03:00 +10°C° 0 mm 1 m/s 637 mmHg 92%
    04:00 +11°C° 0 mm 1 m/s 638 mmHg 92%
    05:00 +11°C° 0 mm 1 m/s 638 mmHg 91%
    06:00 +12°C° 0 mm 1 m/s 639 mmHg 90%
    07:00 +14°C° 0 mm 1 m/s 639 mmHg 84%
    08:00 +16°C° 0 mm 1 m/s 640 mmHg 77%
    09:00 +18°C° 0 mm 2 m/s 640 mmHg 71%
    10:00 +18°C° 0 mm 2 m/s 640 mmHg 69%
    11:00 +19°C° 0 mm 2 m/s 640 mmHg 68%
    12:00 +20°C° 0 mm 2 m/s 640 mmHg 66%
    13:00 +20°C° 0.1 mm 2 m/s 640 mmHg 67%
    14:00 +20°C° 0.1 mm 2 m/s 640 mmHg 69%
    15:00 +20°C° 0.1 mm 2 m/s 640 mmHg 70%
    16:00 +19°C° 0.1 mm 2 m/s 639 mmHg 75%
    17:00 +19°C° 0.1 mm 2 m/s 639 mmHg 80%
    18:00 +19°C° 0.1 mm 1 m/s 639 mmHg 85%
    19:00 +16°C° 0 mm 1 m/s 638 mmHg 87%
    20:00 +15°C° 0 mm 1 m/s 638 mmHg 88%
    21:00 +13°C° 0 mm 1 m/s 638 mmHg 90%
    22:00 +13°C° 0 mm 1 m/s 638 mmHg 88%
    23:00 +13°C° 0 mm 1 m/s 637 mmHg 86%

    Demain, 28 Mai, Jeudi

    Heure Température Précipitation Vent Pression Humidité
    00:00 +12°C° 0 mm 1 m/s 637 mmHg 84%
    01:00 +12°C° 0 mm 1 m/s 637 mmHg 82%
    02:00 +12°C° 0 mm 1 m/s 637 mmHg 80%
    03:00 +12°C° 0 mm 1 m/s 637 mmHg 78%
    04:00 +13°C° 0 mm 1 m/s 637 mmHg 76%
    05:00 +14°C° 0 mm 1 m/s 638 mmHg 75%
    06:00 +15°C° 0 mm 1 m/s 638 mmHg 73%
    07:00 +18°C° 0 mm 1 m/s 638 mmHg 67%
    08:00 +19°C° 0 mm 0 m/s 639 mmHg 60%
    09:00 +21°C° 0 mm 0 m/s 639 mmHg 54%
    10:00 +24°C° 0 mm 1 m/s 639 mmHg 52%
    11:00 +25°C° 0 mm 1 m/s 639 mmHg 50%
    12:00 +25°C° 0 mm 1 m/s 639 mmHg 48%
    13:00 +25°C° 0.4 mm 1 m/s 639 mmHg 49%
    14:00 +25°C° 0.4 mm 1 m/s 638 mmHg 50%
    15:00 +25°C° 0.4 mm 1 m/s 638 mmHg 52%
    16:00 +24°C° 0.4 mm 1 m/s 637 mmHg 60%
    17:00 +23°C° 0.4 mm 1 m/s 637 mmHg 68%
    18:00 +22°C° 0.4 mm 1 m/s 637 mmHg 76%
    19:00 +21°C° 0 mm 1 m/s 636 mmHg 75%
    20:00 +19°C° 0 mm 1 m/s 636 mmHg 74%
    21:00 +16°C° 0 mm 1 m/s 636 mmHg 73%
    22:00 +16°C° 0 mm 1 m/s 636 mmHg 73%
    23:00 +15°C° 0 mm 1 m/s 636 mmHg 73%

    Après-demain, 29 Mai, Vendredi

    Heure Température Précipitation Vent Pression Humidité
    00:00 +15°C° 0 mm 1 m/s 636 mmHg 74%
    01:00 +15°C° 0 mm 1 m/s 635 mmHg 76%
    02:00 +14°C° 0 mm 1 m/s 635 mmHg 78%
    03:00 +13°C° 0 mm 1 m/s 634 mmHg 79%
    04:00 +14°C° 0 mm 1 m/s 634 mmHg 79%
    05:00 +15°C° 0 mm 1 m/s 634 mmHg 79%
    06:00 +16°C° 0 mm 1 m/s 634 mmHg 78%
    07:00 +19°C° 0 mm 1 m/s 634 mmHg 72%
    08:00 +20°C° 0 mm 2 m/s 635 mmHg 66%
    09:00 +23°C° 0 mm 2 m/s 635 mmHg 60%
    10:00 +24°C° 0.2 mm 2 m/s 635 mmHg 58%
    11:00 +25°C° 0.2 mm 3 m/s 634 mmHg 55%
    12:00 +26°C° 0.2 mm 4 m/s 634 mmHg 52%
    13:00 +26°C° 0.6 mm 4 m/s 634 mmHg 53%
    14:00 +26°C° 0.6 mm 4 m/s 633 mmHg 54%
    15:00 +26°C° 0.6 mm 4 m/s 633 mmHg 54%
    16:00 +25°C° 0.6 mm 3 m/s 633 mmHg 60%
    17:00 +24°C° 0.6 mm 2 m/s 633 mmHg 66%
    18:00 +23°C° 0.6 mm 1 m/s 632 mmHg 72%
    19:00 +20°C° 0.4 mm 1 m/s 632 mmHg 74%
    20:00 +18°C° 0.4 mm 1 m/s 632 mmHg 76%
    21:00 +15°C° 0.4 mm 1 m/s 632 mmHg 77%
    22:00 +14°C° 0.1 mm 1 m/s 632 mmHg 75%
    23:00 +13°C° 0.1 mm 2 m/s 632 mmHg 73%

    30 Mai, Samedi

    Heure Température Précipitation Vent Pression Humidité
    00:00 +13°C° 0.1 mm 2 m/s 632 mmHg 71%
    01:00 +12°C° 0 mm 2 m/s 632 mmHg 69%
    02:00 +10°C° 0 mm 2 m/s 631 mmHg 68%
    03:00 +9°C° 0 mm 2 m/s 631 mmHg 67%
    04:00 +10°C° 0 mm 2 m/s 632 mmHg 69%
    05:00 +10°C° 0 mm 2 m/s 632 mmHg 71%
    06:00 +10°C° 0 mm 2 m/s 633 mmHg 72%
    07:00 +12°C° 0 mm 3 m/s 633 mmHg 64%
    08:00 +14°C° 0 mm 3 m/s 634 mmHg 56%
    09:00 +17°C° 0 mm 4 m/s 635 mmHg 48%
    10:00 +17°C° 0 mm 4 m/s 635 mmHg 48%
    11:00 +18°C° 0 mm 4 m/s 636 mmHg 47%
    12:00 +19°C° 0 mm 4 m/s 636 mmHg 47%
    13:00 +19°C° 0 mm 4 m/s 636 mmHg 46%
    14:00 +20°C° 0 mm 4 m/s 636 mmHg 45%
    15:00 +20°C° 0 mm 3 m/s 636 mmHg 44%
    16:00 +19°C° 0.1 mm 3 m/s 636 mmHg 52%
    17:00 +19°C° 0.1 mm 2 m/s 636 mmHg 59%
    18:00 +18°C° 0.1 mm 2 m/s 636 mmHg 67%
    19:00 +15°C° 0.1 mm 1 m/s 635 mmHg 73%
    20:00 +13°C° 0.1 mm 1 m/s 635 mmHg 79%
    21:00 +10°C° 0.1 mm 1 m/s 635 mmHg 86%
    22:00 +10°C° 0 mm 1 m/s 635 mmHg 84%
    23:00 +10°C° 0 mm 1 m/s 635 mmHg 83%

    31 Mai, Dimanche

    Heure Température Précipitation Vent Pression Humidité
    00:00 +9°C° 0 mm 1 m/s 635 mmHg 81%
    01:00 +9°C° 0 mm 1 m/s 635 mmHg 80%
    02:00 +9°C° 0 mm 1 m/s 635 mmHg 79%
    03:00 +9°C° 0 mm 1 m/s 634 mmHg 77%
    04:00 +10°C° 0 mm 1 m/s 635 mmHg 76%
    05:00 +11°C° 0 mm 1 m/s 636 mmHg 75%
    06:00 +12°C° 0 mm 1 m/s 636 mmHg 74%
    07:00 +14°C° 0 mm 1 m/s 637 mmHg 69%
    08:00 +16°C° 0 mm 1 m/s 637 mmHg 64%
    09:00 +18°C° 0 mm 2 m/s 637 mmHg 59%
    10:00 +19°C° 0 mm 2 m/s 637 mmHg 57%
    11:00 +19°C° 0 mm 2 m/s 637 mmHg 55%
    12:00 +20°C° 0 mm 2 m/s 637 mmHg 53%
    13:00 +20°C° 0.3 mm 2 m/s 637 mmHg 55%
    14:00 +20°C° 0.3 mm 2 m/s 637 mmHg 57%
    15:00 +20°C° 0.3 mm 2 m/s 636 mmHg 59%
    16:00 +19°C° 0.3 mm 2 m/s 636 mmHg 65%
    17:00 +19°C° 0.3 mm 2 m/s 636 mmHg 70%
    18:00 +19°C° 0.3 mm 1 m/s 635 mmHg 76%
    19:00 +16°C° 0.1 mm 1 m/s 635 mmHg 79%
    20:00 +14°C° 0.1 mm 1 m/s 635 mmHg 82%
    21:00 +12°C° 0.1 mm 1 m/s 634 mmHg 85%
    22:00 +12°C° 0 mm 1 m/s 635 mmHg 84%
    23:00 +11°C° 0 mm 1 m/s 635 mmHg 83%

    1 Juin, Lundi

    Heure Température Précipitation Vent Pression Humidité
    00:00 +11°C° 0 mm 1 m/s 635 mmHg 83%
    01:00 +11°C° 0 mm 1 m/s 635 mmHg 82%
    02:00 +9°C° 0 mm 0 m/s 635 mmHg 82%
    03:00 +9°C° 0 mm 0 m/s 635 mmHg 81%
    04:00 +10°C° 0 mm 0 m/s 635 mmHg 81%
    05:00 +11°C° 0 mm 0 m/s 636 mmHg 81%
    06:00 +12°C° 0 mm 0 m/s 636 mmHg 80%
    07:00 +15°C° 0 mm 1 m/s 637 mmHg 75%
    08:00 +16°C° 0 mm 1 m/s 637 mmHg 70%
    09:00 +19°C° 0 mm 1 m/s 638 mmHg 65%
    10:00 +20°C° 0.1 mm 1 m/s 638 mmHg 61%
    11:00 +21°C° 0.1 mm 1 m/s 638 mmHg 57%
    12:00 +22°C° 0.1 mm 1 m/s 638 mmHg 53%
    13:00 +22°C° 0.3 mm 1 m/s 637 mmHg 53%
    14:00 +22°C° 0.3 mm 1 m/s 637 mmHg 52%
    15:00 +21°C° 0.3 mm 2 m/s 637 mmHg 52%
    16:00 +22°C° 0.2 mm 1 m/s 636 mmHg 58%
    17:00 +21°C° 0.2 mm 1 m/s 636 mmHg 65%
    18:00 +21°C° 0.2 mm 1 m/s 636 mmHg 71%
    19:00 +18°C° 0.1 mm 1 m/s 635 mmHg 72%
    20:00 +15°C° 0.1 mm 1 m/s 635 mmHg 73%
    21:00 +13°C° 0.1 mm 1 m/s 635 mmHg 74%
    22:00 +13°C° 0 mm 1 m/s 635 mmHg 72%
    23:00 +13°C° 0 mm 1 m/s 635 mmHg 69%
    Voir plus